| time (UTC) | temp C | wind direction | speed KPH | gust KPH | rain 1hr cm | rain 24hr cm | rain mn cm | humidity % | barometer mb |
| 20260507144004 | 14 | 215 | 11.3 | 16.1 | 0.00 | 0.00 | 0.00 | 58 | 1014.4 |
| 20260507143004 | 13 | 213 | 14.5 | 19.3 | 0.00 | 0.00 | 0.00 | 61 | 1014.5 |
| 20260507142005 | 12 | 209 | 8.0 | 19.3 | 0.00 | 0.00 | 0.00 | 63 | 1014.7 |
| 20260507141004 | 12 | 201 | 8.0 | 16.1 | 0.00 | 0.00 | 0.00 | 64 | 1014.7 |
| 20260507140005 | 12 | 248 | 16.1 | 12.9 | 0.00 | 0.00 | 0.00 | 66 | 1014.8 |
| 20260507134004 | 11 | 246 | 0.0 | 0.0 | 0.00 | 0.00 | 0.00 | 68 | 1014.9 |
| 20260507133005 | 11 | 253 | 0.0 | 0.0 | 0.00 | 0.00 | 0.00 | 71 | 1014.9 |
| 20260507132004 | 10 | 229 | 0.0 | 0.0 | 0.00 | 0.00 | 0.00 | 72 | 1014.9 |
| 20260507131004 | 10 | 234 | 0.0 | 0.0 | 0.00 | 0.00 | 0.00 | 73 | 1014.9 |
| 20260507130004 | 10 | 226 | 0.0 | 0.0 | 0.00 | 0.00 | 0.00 | 75 | 1015.0 |
| 20260507125004 | 10 | 225 | 0.0 | 1.6 | 0.00 | 0.00 | 0.00 | 76 | 1014.7 |
| 20260507124004 | 9 | 202 | 0.0 | 1.6 | 0.00 | 0.00 | 0.00 | 77 | 1014.7 |
| 20260507123005 | 8 | 202 | 0.0 | 12.9 | 0.00 | 0.00 | 0.00 | 78 | 1014.6 |
| 20260507122004 | 8 | 209 | 12.9 | 19.3 | 0.00 | 0.00 | 0.00 | 80 | 1014.5 |
| 20260507121004 | 8 | 223 | 9.7 | 14.5 | 0.00 | 0.00 | 0.00 | 82 | 1014.5 |
| 20260507120005 | 7 | 215 | 11.3 | 16.1 | 0.00 | 0.00 | 0.00 | 83 | 1014.6 |
| 20260507115004 | 7 | 180 | 0.0 | 0.0 | 0.00 | 0.00 | 0.00 | 85 | 1014.8 |
| 20260507114004 | 7 | 207 | 0.0 | 9.7 | 0.00 | 0.00 | 0.00 | 86 | 1015.0 |
| 20260507113005 | 6 | 195 | 0.0 | 0.0 | 0.00 | 0.00 | 0.00 | 87 | 1015.0 |
| 20260507111004 | 6 | 202 | 0.0 | 0.0 | 0.00 | 0.00 | 0.00 | 87 | 1015.1 |
| 20260507110004 | 6 | 202 | 0.0 | 0.0 | 0.00 | 0.00 | 0.00 | 87 | 1015.1 |
| 20260507105004 | 6 | 202 | 0.0 | 0.0 | 0.00 | 0.00 | 0.00 | 87 | 1015.2 |
| 20260507103004 | 6 | 215 | 0.0 | 0.0 | 0.00 | 0.00 | 0.00 | 87 | 1015.2 |
| 20260507102006 | 6 | 202 | 0.0 | 0.0 | 0.00 | 0.00 | 0.00 | 87 | 1015.3 |
| 20260507101005 | 6 | 202 | 0.0 | 0.0 | 0.00 | 0.00 | 0.00 | 86 | 1015.3 |
| 20260507100005 | 6 | 225 | 0.0 | 4.8 | 0.00 | 0.00 | 0.00 | 86 | 1015.4 |
| 20260507094004 | 6 | 202 | 0.0 | 4.8 | 0.00 | 0.00 | 0.00 | 85 | 1015.6 |
| 20260507093004 | 6 | 232 | 0.0 | 0.0 | 0.00 | 0.00 | 0.00 | 84 | 1015.7 |
| 20260507092004 | 6 | 231 | 0.0 | 0.0 | 0.00 | 0.00 | 0.00 | 84 | 1015.6 |
| 20260507091005 | 7 | 215 | 0.0 | 0.0 | 0.00 | 0.00 | 0.00 | 83 | 1015.6 |
| 20260507090005 | 7 | 243 | 0.0 | 0.0 | 0.00 | 0.00 | 0.00 | 82 | 1015.7 |
| 20260507084004 | 7 | 212 | 0.0 | 0.0 | 0.00 | 0.00 | 0.00 | 81 | 1015.9 |
| 20260507083004 | 7 | 202 | 0.0 | 0.0 | 0.00 | 0.00 | 0.00 | 81 | 1016.0 |
| 20260507082004 | 6 | 212 | 0.0 | 0.0 | 0.00 | 0.00 | 0.00 | 80 | 1016.0 |
| 20260507081004 | 7 | 215 | 0.0 | 0.0 | 0.00 | 0.00 | 0.00 | 79 | 1016.0 |
| 20260507080004 | 6 | 206 | 0.0 | 0.0 | 0.00 | 0.00 | 0.00 | 79 | 1016.0 |
| 20260507075004 | 6 | 202 | 0.0 | 0.0 | 0.00 | 0.00 | 0.00 | 78 | 1016.2 |
| 20260507074004 | 6 | 202 | 0.0 | 0.0 | 0.00 | 0.00 | 0.00 | 78 | 1016.2 |
| 20260507072004 | 7 | 215 | 0.0 | 0.0 | 0.00 | 0.00 | 0.00 | 76 | 1016.5 |
| 20260507071004 | 7 | 206 | 0.0 | 0.0 | 0.00 | 0.00 | 0.00 | 74 | 1016.6 |
| 20260507070008 | 7 | 228 | 0.0 | 0.0 | 0.00 | 0.00 | 0.00 | 74 | 1016.7 |
| 20260507065004 | 7 | 212 | 0.0 | 0.0 | 0.00 | 0.00 | 0.00 | 73 | 1016.9 |
| 20260507064004 | 7 | 238 | 0.0 | 0.0 | 0.00 | 0.00 | 0.00 | 72 | 1017.0 |
| 20260507062004 | 8 | 206 | 0.0 | 0.0 | 0.00 | 0.00 | 0.00 | 70 | 1016.9 |
| 20260507060004 | 8 | 202 | 0.0 | 0.0 | 0.00 | 0.00 | 0.00 | 68 | 1017.0 |
| 20260507053004 | 8 | 225 | 0.0 | 0.0 | 0.00 | 0.00 | 0.00 | 64 | 1017.2 |
| 20260507052004 | 8 | 202 | 0.0 | 0.0 | 0.00 | 0.00 | 0.00 | 63 | 1017.1 |
| 20260507051004 | 9 | 248 | 0.0 | 0.0 | 0.00 | 0.00 | 0.00 | 61 | 1017.1 |
| 20260507050005 | 9 | 211 | 0.0 | 0.0 | 0.00 | 0.00 | 0.00 | 60 | 1017.1 |
| 20260507045004 | 9 | 222 | 0.0 | 0.0 | 0.00 | 0.00 | 0.00 | 59 | 1017.1 |
| 20260507043004 | 9 | 220 | 0.0 | 0.0 | 0.00 | 0.00 | 0.00 | 56 | 1017.2 |
| 20260507042004 | 8 | 202 | 0.0 | 0.0 | 0.00 | 0.00 | 0.00 | 56 | 1017.1 |
| 20260507034004 | 8 | 158 | 0.0 | 0.0 | 0.00 | 0.00 | 0.00 | 59 | 1017.2 |
| 20260507033004 | 8 | 158 | 0.0 | 0.0 | 0.00 | 0.00 | 0.00 | 58 | 1017.3 |
| 20260507032004 | 8 | 177 | 0.0 | 0.0 | 0.00 | 0.00 | 0.00 | 59 | 1017.2 |
| 20260507031004 | 8 | 180 | 0.0 | 0.0 | 0.00 | 0.00 | 0.00 | 59 | 1017.1 |
| 20260507030004 | 7 | 180 | 0.0 | 0.0 | 0.00 | 0.00 | 0.00 | 61 | 1017.1 |
| 20260507025004 | 8 | 180 | 0.0 | 0.0 | 0.00 | 0.00 | 0.00 | 62 | 1017.1 |
| 20260507024004 | 8 | 202 | 0.0 | 0.0 | 0.00 | 0.00 | 0.00 | 61 | 1017.0 |
| 20260507023004 | 8 | 202 | 0.0 | 0.0 | 0.00 | 0.00 | 0.00 | 60 | 1016.8 |
| 20260507022004 | 8 | 202 | 0.0 | 0.0 | 0.00 | 0.00 | 0.00 | 56 | 1016.8 |
| 20260507020004 | 9 | 202 | 0.0 | 0.0 | 0.00 | 0.00 | 0.00 | 52 | 1016.7 |
| 20260507015004 | 10 | 202 | 0.0 | 0.0 | 0.00 | 0.00 | 0.00 | 46 | 1016.7 |
| 20260507014004 | 10 | 315 | 0.0 | 0.0 | 0.00 | 0.00 | 0.00 | 45 | 1016.6 |
| 20260507013005 | 11 | 202 | 0.0 | 0.0 | 0.00 | 0.00 | 0.00 | 42 | 1016.6 |
| 20260507012004 | 11 | 202 | 0.0 | 0.0 | 0.00 | 0.00 | 0.00 | 42 | 1016.5 |
| 20260507011004 | 12 | 202 | 0.0 | 0.0 | 0.00 | 0.00 | 0.00 | 40 | 1016.5 |
| 20260507010004 | 13 | 270 | 0.0 | 0.0 | 0.00 | 0.00 | 0.00 | 37 | 1016.7 |
| 20260507005004 | 13 | 280 | 0.0 | 0.0 | 0.00 | 0.00 | 0.00 | 36 | 1016.6 |
| 20260507003004 | 15 | 295 | 0.0 | 3.2 | 0.00 | 0.00 | 0.00 | 34 | 1016.6 |
| 20260507002004 | 15 | 22 | 1.6 | 11.3 | 0.00 | 0.00 | 0.00 | 33 | 1016.6 |
| 20260507001004 | 15 | 11 | 1.6 | 11.3 | 0.00 | 0.00 | 0.00 | 34 | 1016.6 |
| 20260507000004 | 15 | 281 | 0.0 | 8.0 | 0.00 | 0.00 | 0.00 | 33 | 1016.7 |
| 20260506234004 | 16 | 326 | 4.8 | 16.1 | 0.00 | 0.00 | 0.00 | 31 | 1016.8 |
| 20260506233004 | 16 | 283 | 4.8 | 11.3 | 0.00 | 0.00 | 0.00 | 31 | 1016.8 |
| 20260506232004 | 16 | 332 | 0.0 | 4.8 | 0.00 | 0.00 | 0.00 | 30 | 1016.8 |
| 20260506231004 | 16 | 293 | 6.4 | 12.9 | 0.00 | 0.00 | 0.00 | 31 | 1016.8 |
| 20260506230004 | 17 | 277 | 4.8 | 11.3 | 0.00 | 0.00 | 0.00 | 29 | 1016.9 |
| 20260506224004 | 17 | 21 | 4.8 | 12.9 | 0.00 | 0.00 | 0.00 | 29 | 1017.0 |
| 20260506223004 | 17 | 282 | 3.2 | 14.5 | 0.00 | 0.00 | 0.00 | 30 | 1017.1 |
| 20260506221004 | 17 | 26 | 3.2 | 12.9 | 0.00 | 0.00 | 0.00 | 29 | 1017.1 |
| 20260506220004 | 16 | 221 | 0.0 | 11.3 | 0.00 | 0.00 | 0.00 | 31 | 1017.2 |
| 20260506215004 | 17 | 298 | 3.2 | 16.1 | 0.00 | 0.00 | 0.00 | 30 | 1017.3 |
| 20260506214004 | 18 | 7 | 3.2 | 16.1 | 0.00 | 0.00 | 0.00 | 28 | 1017.5 |
| 20260506213004 | 18 | 349 | 4.8 | 12.9 | 0.00 | 0.00 | 0.00 | 29 | 1017.7 |
| 20260506203005 | 18 | 274 | 14.5 | 20.9 | 0.00 | 0.00 | 0.00 | 29 | 1018.5 |
| 20260506202004 | 17 | 9 | 19.3 | 20.9 | 0.00 | 0.00 | 0.00 | 30 | 1018.7 |
| 20260506201004 | 17 | 309 | 1.6 | 16.1 | 0.00 | 0.00 | 0.00 | 32 | 1018.7 |
| 20260506195004 | 16 | 326 | 8.0 | 16.1 | 0.00 | 0.00 | 0.00 | 31 | 1018.8 |
| 20260506194004 | 17 | 86 | 25.7 | 32.2 | 0.00 | 0.00 | 0.00 | 30 | 1018.8 |
| 20260506193004 | 16 | 262 | 0.0 | 20.9 | 0.00 | 0.00 | 0.00 | 33 | 1018.7 |
| 20260506192004 | 17 | 28 | 14.5 | 16.1 | 0.00 | 0.00 | 0.00 | 29 | 1018.8 |
| 20260506191004 | 16 | 183 | 1.6 | 12.9 | 0.00 | 0.00 | 0.00 | 30 | 1018.8 |
| 20260506190004 | 17 | 358 | 4.8 | 16.1 | 0.00 | 0.00 | 0.00 | 31 | 1018.8 |
| 20260506185004 | 17 | 355 | 12.9 | 24.1 | 0.00 | 0.00 | 0.00 | 30 | 1018.9 |
| 20260506184005 | 16 | 22 | 4.8 | 16.1 | 0.00 | 0.00 | 0.00 | 30 | 1018.8 |
| 20260506183005 | 16 | 20 | 9.7 | 24.1 | 0.00 | 0.00 | 0.00 | 30 | 1018.9 |
| 20260506182004 | 16 | 50 | 22.5 | 35.4 | 0.00 | 0.00 | 0.00 | 30 | 1019.3 |
| 20260506181004 | 16 | 327 | 19.3 | 20.9 | 0.00 | 0.00 | 0.00 | 30 | 1019.3 |
| 20260506180005 | 16 | 283 | 4.8 | 16.1 | 0.00 | 0.00 | 0.00 | 31 | 1019.3 |
| 20260506175004 | 16 | 296 | 20.9 | 24.1 | 0.00 | 0.00 | 0.00 | 30 | 1019.4 |
| 20260506174005 | 15 | 54 | 1.6 | 16.1 | 0.00 | 0.00 | 0.00 | 31 | 1019.6 |
| 20260506173004 | 16 | 311 | 11.3 | 22.5 | 0.00 | 0.00 | 0.00 | 31 | 1019.6 |
| 20260506172004 | 17 | 350 | 6.4 | 29.0 | 0.00 | 0.00 | 0.00 | 30 | 1019.7 |
| 20260506171004 | 15 | 212 | 1.6 | 11.3 | 0.00 | 0.00 | 0.00 | 36 | 1019.7 |
| 20260506170004 | 16 | 16 | 9.7 | 20.9 | 0.00 | 0.00 | 0.00 | 32 | 1019.8 |
| 20260506165005 | 15 | 332 | 1.6 | 11.3 | 0.00 | 0.00 | 0.00 | 35 | 1019.8 |
| 20260506164004 | 15 | 24 | 3.2 | 19.3 | 0.00 | 0.00 | 0.00 | 35 | 1019.8 |
| 20260506163005 | 14 | 68 | 0.0 | 11.3 | 0.00 | 0.00 | 0.00 | 37 | 1019.9 |
| 20260506162004 | 13 | 49 | 0.0 | 11.3 | 0.00 | 0.00 | 0.00 | 40 | 1019.9 |
| 20260506161005 | 13 | 9 | 9.7 | 14.5 | 0.00 | 0.00 | 0.00 | 39 | 1019.9 |
| 20260506160005 | 12 | 22 | 0.0 | 0.0 | 0.00 | 0.00 | 0.00 | 40 | 1020.0 |
| 20260506155004 | 11 | 10 | 6.4 | 11.3 | 0.00 | 0.00 | 0.00 | 42 | 1019.9 |
| 20260506154004 | 11 | 31 | 0.0 | 0.0 | 0.00 | 0.00 | 0.00 | 42 | 1019.9 |
| 20260506153005 | 11 | 0 | 0.0 | 0.0 | 0.00 | 0.00 | 0.00 | 43 | 1019.9 |
| 20260506152004 | 10 | 302 | 0.0 | 0.0 | 0.00 | 0.00 | 0.00 | 44 | 1019.8 |
| 20260506151004 | 10 | 13 | 0.0 | 9.7 | 0.00 | 0.00 | 0.00 | 46 | 1019.8 |
| 20260506150004 | 10 | 35 | 0.0 | 11.3 | 0.00 | 0.00 | 0.00 | 48 | 1019.7 |